Regional Weather Roundup
Issued by NWS Wakefield, VA

Home | Current Version | Previous Version | Text Only | Print | Product List | Glossary Off
Versions: 1 2 3 4 5 6 7 8 9 10 11 12 13 14 15 16 17 18 19 20 21 22 23 24 25 26 27 28 29 30 31 32 33 34 35 36 37 38 39 40 41 42 43 44 45 46 47 48 49 50
000 ASUS41 KAKQ 231414 RWRAKQ REGIONAL WEATHER ROUNDUP NATIONAL WEATHER SERVICE WAKEFIELD VA 1000 AM EDT SAT MAR 23 2019 Note: "fair" indicates few or no clouds below 12,000 feet with no significant weather and/or obstructions to visibility. * = Denotes station may not report precipitation (e.g., rain,snow,etc.), thunder or fog. VAZ042-051-052>054-056-231500- NORTHERN VIRGINIA CITY SKY/WX TMP DP RH WIND PRES REMARKS WASH NATIONAL FAIR 41 19 41 NW20G30 30.10R DULLES FAIR 38 19 46 NW23G32 30.10R FORT BELVOIR FAIR 41 16 36 NW23G33 30.10R QUANTICO FAIR 43 21 41 NW10G21 30.12R FREDERICKSBRG* FAIR 46 22 38 W12 30.10R STAFFORD* FAIR 47 25 41 W9 30.15R WARRENTON FAIR 44 16 31 NW8G16 30.10R CULPEPER* FAIR 46 12 25 NW7 30.11R MANASSAS* FAIR 41 20 43 NW17G24 30.11R LEESBURG* FAIR 37 23 56 NW22G32 30.11R WINCHESTER FAIR 34 18 51 NW20G26 30.12R WCI 22 FRONT ROYAL* FAIR 39 16 38 NW8 30.10R LURAY* FAIR 39 14 35 W8G21 30.12R $$ VAZ048-049-060>072-079>083-231500- CENTRAL AND SOUTH CENTRAL VIRGINIA CITY SKY/WX TMP DP RH WIND PRES REMARKS RICHMOND FAIR 47 22 37 W17 30.11R CHESTERFIELD* FAIR 47 23 38 W16G23 30.13R PETERSBURG* FAIR 47 23 39 W13G18 30.14R HANOVER FAIR 47 24 40 W10 30.13R TAPPAHANNOCK* FAIR 45 25 45 W9 30.11R QUINTON* FAIR 46 24 42 W15G22 30.11R CHARLOTTSVILLE FAIR 46 17 31 VRB6G23 30.10R GORDONSVILLE* FAIR 44 15 31 NW6 30.11R ORANGE* FAIR 45 19 36 W13 30.11R LOUISA* FAIR 45 19 35 W14 30.15R BUMPASS* FAIR 45 15 29 W8 30.10R FARMVILLE* FAIR 47 21 35 SW10G16 30.14R CREWE* FAIR 46 17 31 W10G17 30.14R FORT PICKETT* FAIR 46 23 40 W12G22 30.14R CHASE CITY* FAIR 46 23 40 W7G17 30.17R CLARKSVILLE* FAIR 46 27 46 W8G16 30.18R SOUTH HILL* FAIR 46 26 45 W8G20 30.22R LAWRENCEVILLE* FAIR 47 23 39 W7 30.16R EMPORIA* FAIR 47 24 41 W14 30.18R $$ VAZ088>098-231500- SOUTHEAST VIRGINIA CITY SKY/WX TMP DP RH WIND PRES REMARKS NORFOLK FAIR 47 26 44 W13G23 30.11R VIRGINIA BEACH FAIR 48 25 40 W15 30.11R NORFOLK NAVAL FAIR 47 26 44 W16G24 30.13R WEST POINT* FAIR 46 29 50 W10G20 30.12R SALUDA* FAIR 44 27 50 NW9 30.09R NEWPORT NEWS FAIR 48 26 42 NW16G26 30.11R LANGLEY AFB FAIR 47 25 41 NW21G30 30.10R FORT EUSTIS NOT AVBL WILLIAMSBURG* FAIR 48 28 46 W13G21 30.12R HR EXEC AP* FAIR 48 24 39 W12G18 30.14R FRANKLIN* FAIR 48 24 40 NW12 30.15R US460-WAKEFLD FAIR 48 24 39 W9G23 30.13R $$ VAZ020-022-025-037-045-231500- WEST CENTRAL AND SOUTHWEST VIRGINIA CITY SKY/WX TMP DP RH WIND PRES REMARKS STAUNTON* FAIR 41 15 34 NW13 30.13R WAYNESBORO* NOT AVBL HOT SPRINGS VA FAIR 30 21 69 W16G28 30.05R WCI 18 LYNCHBURG FAIR 45 18 34 W12G18 30.16R DANVILLE FAIR 47 25 42 W12 30.21R SOUTH BOSTON* FAIR 48 22 36 W8G16 30.19R MARTINSVILLE FAIR 46 23 39 CALM 30.24R ROANOKE FAIR 44 18 35 W14G21 30.19R BLACKSBURG FAIR 38 24 58 W8 30.21R DUBLIN* FAIR 40 24 52 CALM 30.20R MARION* FAIR 39 26 60 SW12G17 30.22R HILLSVILLE* FAIR 37 18 46 NW17G23 30.15R RICHLANDS* FAIR 32 23 69 N5 30.23R WISE* FAIR 34 28 80 NW3 30.25R ABINGDON* FAIR 38 24 57 W7 30.25R $$ MDZ021>025-VAZ099-100-231500- SOUTHERN MARYLAND AND THE DELMARVA PENINSULA CITY SKY/WX TMP DP RH WIND PRES REMARKS PATUXENT RIVER FAIR 43 23 45 NW21G32 30.07R BAY BRIDGE APT FAIR N/A N/A N/A W13G21 30.06R LEONARDTOWN FAIR 41 23 48 W10G24 30.09R DOVER FAIR 41 23 49 W24G32 29.98R GEORGETOWN FAIR 43 24 47 NW13G25 30.01R EASTON SUNNY 43 25 49 W21G30 30.08R CAMBRIDGE SUNNY 41 25 52 NW20G29 30.07R SALISBURY FAIR 41 26 55 NW16G25 30.04R TANGIER FAIR 45 30 57 NW24G32 30.07R OCEAN CITY FAIR 41 26 55 NW21G29 30.01R WALLOPS ISLAND FAIR 44 24 45 W21G35 30.04R ACCOMACK* FAIR 44 28 52 W21G31 30.08R $$ NCZ012>017-030>032-231500- NORTH CENTRAL AND EASTERN NORTH CAROLINA CITY SKY/WX TMP DP RH WIND PRES REMARKS ROANOKE RAPIDS FAIR 46 32 57 CALM 30.18R RALEIGH FAIR 48 23 37 W13G22 30.21R ELIZABETH CITY FAIR 50 26 39 W15G28 30.14R AHOSKIE* FAIR 48 25 40 W13G21 30.17R EDENTON* FAIR 51 29 42 NW16G22 30.16R CURRITUCK* FAIR 48 27 43 MISG 30.13R KILL DEVIL HLS FAIR 48 27 44 W12G20 30.12R MANTEO FAIR 48 26 42 NW13G23 30.14R CAPE HATTERAS FAIR 51 29 42 NW12G23 30.15R TARBORO* FAIR 50 24 37 W12G23 30.18R GOLDSBORO FAIR 51 25 36 NW9G18 30.19R WASHINGTON FAIR 51 25 37 W10G18 30.19R GREENVILLE FAIR 50 23 34 NW13G20 30.20R NEW BERN FAIR 51 28 41 NW18 30.20R WILMINGTON FAIR 53 27 36 NW16 30.22R $$ VAZ048-231500- ELSEWHERE CITY SKY/WX TMP DP RH WIND PRES REMARKS HARRISBURG PA FAIR 39 19 44 NW29G36 30.01R BALTIMORE FAIR 41 23 48 NW18G26 30.05R ANNAPOLIS FAIR 43 23 45 NW16G30 30.06R ANDREWS AFB FAIR 39 20 47 W18G25 30.07R PHILADELPHIA PTSUNNY 40 21 46 NW20G28 29.95R HENDERSON NC FAIR 45 22 39 W9 30.19R GREENSBORO FAIR 47 22 37 W14 30.21R ROCKY MOUNT FAIR 50 26 39 W10G21 30.20R $$ VAZ100-231500- MARINE STATION/POSITION TIME TEMP WIND PRES WAVE SWELL AIR SEA DIR/SP/G HT/PER HT/PER (UTC) (F) (DEG/KT/KT) (MB) (FT/S) (FT/S) BRANDYWINE LGT 1336 1015.3R CAPE MAY NJ 1342 39 44 1014.4R LEWES DE 1342 39 44 1015.7R 15NM E FENWICK I 1350 43 1015.0R 6/ 6 OCEAN-CITY-INLET 1342 40 44 1016.4R WACHAPREAGUE VA 1342 45 46 1017.7R THOMAS POINT MD 1400 38 44 280/ 24/ 28 1018.7R COVE POINT MD 1342 39 1018.7R SOLOMONS ISLAND 1342 41 45 1017.9R BISHOPS HEAD MD 1342 40 43 1018.5R POTOMAC MD 1354 40 45 300/ 23/ 25 1019.4R CAMBRIDGE MD 1342 39 46 1017.5R LEWISETTA VA 1342 42 46 1018.6R RAPPAHANNOCK LGT 1342 1019.5R STINGRAY PT 1354 43 47 320/ 16/ 17 1016.5R YORK RVR RNG VA 1342 44 1019.6R YORKTOWN VA 1342 45 49 1018.9R DOMINION TERM VA 1342 45 1019.8R KIPTOPEKE VA 1342 48 N/A CAPE HENRY VA 1342 45 1017.9R WILLOUBY STN VA 1342 44 1018.5R S CRANEY ISL VA 1342 46 1019.5R CAPE HENRY BUOY 1330 46 N/A 5/ 5 2/12 1ST LANDING BUOY 1400 45 47 320/ 17/ 25 1019.2 3/ 3 64NM E OF VA BCH 1350 45 47 300/ 23/ 29 1018.2R 8/ 6 2/12 DUCK PIER NC 1342 47 47 1019.4R 44100 DUCK FRF 1345 47 N/A 4/12 2/12 44056 DUCK FRF 1330 47 N/A 3/12 2/12 OREGON INLET NC 1342 47 50 1020.1R HATTERAS NC 1342 49 57 1020.6R CAPE LOOKOUT NC 1300 49 320/ 16/ 20 1021.8R $$

USA.gov is the U.S. government's official web portal to all federal, state and local government web resources and services.